Tracking 18980 objects as of 20-Feb-2018
HD Live streaming from Space Station
objects crossing your sky now

FENGYUN 1C DEB

Track FENGYUN 1C DEB now!
10-day predictions


NORAD ID: 29927
Int'l Code: 1999-025HZ
Perigee: 775.3 km
Apogee: 821.9 km
Inclination: 99.1 °
Period: 100.7 minutes
Semi major axis: 7169 km
RCS: 0.028 m2 (small)
Launch date: May 10, 1999
Source: People's Republic of China (PRC)
Launch site: Taiyaun Space Center, China (TSC)

Note: This is SATELLITE DEBRIS
aabbcc
Your satellite tracking list
Your tracking list is empty




NASA's NSSDC Master Catalog

Two Line Element Set (TLE):
1 29927U 99025HZ  18050.99800929  .00000835  00000-0  33990-3 0  9997
2 29927  99.1270 228.0435 0032462 311.4653 171.8915 14.30081501576286
Source of the keplerian elements: AFSPC